DateTimeUTC,F1_A11,F1_S11,BsB_S11,BsG_S11,BsR_S11,BbsB_S11,BbsG_S11,BbsR_S11,BaB_A11,BaG_A11,BaR_A11,Tu_S11,T_S11,Uu_S11,U_S11,P_S11,T1_A11
2021-11-20T17:00:00Z,00000200,21000000,,,,,,,-000.16,0000.09,-000.01,18.5,25.2,,00.0,0637.7,30.9
2021-11-20T17:01:00Z,00000200,21010000,,,,,,,-000.12,-000.23,-000.04,18.5,25.2,,00.0,0637.7,30.8
2021-11-20T17:02:00Z,00000200,21000000,,,,,,,-000.02,0000.05,0000.07,18.5,25.2,,00.0,0637.7,30.8
2021-11-20T17:03:00Z,00000200,61000000,,,,,,,0000.98,0000.74,0000.35,18.5,25.2,,00.0,0637.7,30.8
2021-11-20T17:04:00Z,00000200,41000000,0000.94,0000.07,0000.13,0000.01,0000.07,0000.09,-000.01,0000.42,0000.27,18.5,25.0,,00.0,0638.4,30.8
2021-11-20T17:05:00Z,00000200,01000000,-000.03,0000.01,0000.33,-000.08,0000.09,-000.08,0000.37,0000.19,0000.10,18.5,24.9,,00.0,0638.4,30.8
2021-11-20T17:06:00Z,00000200,01000000,0000.41,0000.13,0000.08,-000.32,0000.11,0000.01,0000.66,0000.42,0000.35,18.6,24.9,,00.0,0638.5,30.8
2021-11-20T17:07:00Z,00000200,01000000,-000.08,0000.19,0000.17,-000.27,0000.28,0000.18,0000.00,0000.13,0000.36,18.6,24.9,,00.0,0638.5,30.8
2021-11-20T17:08:00Z,00000200,01000000,-000.19,0000.18,0000.29,0000.29,0000.34,0000.10,0000.25,0000.17,0000.51,18.6,24.9,,00.0,0638.4,30.8
2021-11-20T17:09:00Z,00000200,01000000,0000.45,0000.05,0000.15,-000.78,0000.44,-000.11,0000.22,0000.35,-000.14,18.7,24.9,,00.0,0638.4,30.8
2021-11-20T17:10:00Z,00000200,01000000,0000.88,0000.15,0000.33,0000.30,0000.05,0000.19,0000.11,0000.23,0000.15,18.7,25.0,,00.0,0638.5,30.8
2021-11-20T17:11:00Z,00000200,01000000,0000.40,0000.33,-000.07,-000.40,0000.40,-000.24,0000.18,-000.04,0000.17,18.8,25.0,,00.0,0638.5,30.8
2021-11-20T17:12:00Z,00000200,01000000,0000.61,0000.24,0000.23,0000.04,0000.08,-000.20,0000.26,0000.28,0000.16,18.8,25.0,,00.0,0638.5,30.8
2021-11-20T17:13:00Z,00000200,01000000,0001.10,0000.29,0000.27,0000.46,0000.09,-000.09,0000.19,-000.05,-000.07,18.8,25.0,,00.0,0638.5,30.8
2021-11-20T17:14:00Z,00000200,01000000,0000.08,0000.29,0000.02,-000.05,-000.06,-000.01,0000.29,0000.37,0000.26,18.8,25.0,,00.0,0638.4,30.8
2021-11-20T17:15:00Z,00000200,01000000,0001.31,-000.03,0000.35,0000.08,-000.39,-000.07,-000.25,-000.00,0000.19,18.8,25.0,,00.0,0638.4,30.8
2021-11-20T17:16:00Z,00000200,01000000,0000.17,0000.25,0000.27,0000.25,-000.34,0000.01,0000.33,0000.29,-000.09,18.7,25.0,,00.0,0638.4,30.8
2021-11-20T17:17:00Z,00000200,01000000,0000.65,0000.06,-000.09,0000.01,-000.20,-000.02,0000.26,0000.08,0000.33,18.6,25.0,,00.0,0638.4,30.8
2021-11-20T17:18:00Z,00000200,01000000,-000.05,0000.02,0000.01,0000.55,-000.19,0000.12,0000.16,0000.06,-000.05,18.5,24.9,,00.0,0638.3,30.8
2021-11-20T17:19:00Z,00000200,01000000,0000.43,0000.62,0000.35,-000.28,-000.12,0000.01,0000.25,0000.22,0000.22,18.5,24.9,,00.0,0638.3,30.8
2021-11-20T17:20:00Z,00000200,01000000,0000.18,0000.21,0000.07,0001.21,0000.17,-000.13,0000.41,0000.25,0000.04,18.5,24.8,,00.0,0638.3,30.8
2021-11-20T17:21:00Z,00000200,01000000,0000.49,0000.18,0000.07,0000.53,0000.22,0000.30,0000.23,0000.12,0000.31,18.5,24.9,,00.0,0638.3,30.8
2021-11-20T17:22:00Z,00000200,01000000,0000.38,0000.28,0000.29,-000.09,0000.19,0000.33,0000.10,0000.57,0000.44,18.6,24.8,,00.0,0638.2,30.8
2021-11-20T17:23:00Z,00000200,01000000,-000.39,0000.55,0000.08,-000.12,0000.23,-000.16,0000.39,0000.32,0000.27,18.6,24.9,,00.0,0638.2,30.8
2021-11-20T17:24:00Z,00000200,01000000,0000.80,0000.30,0000.03,0000.10,0000.09,-000.17,0000.55,0000.26,0000.27,18.7,24.9,,00.0,0638.1,30.8
2021-11-20T17:25:00Z,00000200,01000000,-000.05,0000.75,0000.10,0000.96,-000.13,0000.05,0000.14,0000.13,-000.30,18.7,24.9,,00.0,0638.1,30.8
2021-11-20T17:26:00Z,00000200,01000000,-000.10,0000.24,0000.31,0000.16,0000.26,0000.08,0000.31,0000.45,0000.57,18.7,24.9,,00.0,0638.1,30.8
2021-11-20T17:27:00Z,00000200,01000000,0000.23,0000.25,0000.19,-000.42,0000.12,0000.23,0000.22,0000.28,0000.49,18.8,24.9,,00.0,0638.1,30.8
2021-11-20T17:28:00Z,00000200,01000000,0000.22,0000.24,0000.01,0000.08,0000.38,-000.06,0000.27,0000.37,-000.04,18.8,24.9,,00.0,0638.1,30.8
2021-11-20T17:29:00Z,00000200,01000000,-000.06,-000.13,-000.21,0000.44,0000.31,-000.11,-000.16,-000.32,-000.22,18.8,25.0,,00.0,0638.1,30.8
2021-11-20T17:30:00Z,00000200,01000000,-000.12,0000.05,0000.48,0000.31,-000.03,0000.28,-000.12,0000.01,0000.06,18.8,25.0,,00.0,0638.1,30.8
2021-11-20T17:31:00Z,00000200,01000000,0000.62,0000.08,0000.17,0000.29,0000.17,-000.02,0000.34,0000.17,-000.01,18.7,25.0,,00.0,0638.1,30.8
2021-11-20T17:32:00Z,00000200,01000000,0000.05,0000.11,0000.22,0000.36,0000.12,0000.12,0000.41,0000.40,0000.11,18.7,24.9,,00.0,0638.1,30.8
2021-11-20T17:33:00Z,00000200,01000000,-000.05,0000.03,0000.10,0000.26,-000.09,0000.19,0000.29,0000.01,0000.09,18.6,24.9,,00.0,0638.1,30.8
2021-11-20T17:34:00Z,00000200,01000000,0000.68,0000.23,0000.06,0000.50,-000.02,-000.09,0000.45,0000.25,0000.45,18.6,24.9,,00.0,0638.0,30.7
2021-11-20T17:35:00Z,00000200,01000000,0000.85,-000.01,0000.03,-000.14,-000.11,0000.19,0000.06,0000.20,0000.03,18.6,24.9,,00.0,0638.0,30.7
2021-11-20T17:36:00Z,00000200,01000000,0000.55,0000.08,0000.36,-000.05,-000.19,0000.25,0000.28,0000.49,0000.43,18.6,24.9,,00.0,0638.0,30.8
2021-11-20T17:37:00Z,00000200,01000000,0000.64,0000.35,0000.23,0000.37,-000.01,0000.15,0000.03,0000.01,-000.20,18.6,24.9,,00.0,0638.0,30.8
2021-11-20T17:38:00Z,00000200,01000000,0000.54,0000.42,0000.27,0000.26,0000.06,0000.22,0000.20,0000.06,0000.32,18.7,24.9,,00.0,0638.0,30.8
2021-11-20T17:39:00Z,00000200,01000000,0000.04,0000.33,0000.46,0000.43,0000.22,0000.07,0000.38,0000.51,0000.21,18.7,24.9,,00.0,0638.0,30.8
2021-11-20T17:40:00Z,00000200,01000000,0000.40,0000.45,0000.39,-000.00,-000.04,-000.17,0000.20,0000.16,0000.13,18.8,24.9,,00.0,0637.9,30.8
2021-11-20T17:41:00Z,00000200,01000000,-000.21,0000.29,0000.24,0000.44,-000.15,0000.22,0000.04,-000.00,0000.14,18.8,24.9,,00.0,0637.9,30.8
2021-11-20T17:42:00Z,00000200,01000000,0000.19,0000.22,0000.03,0000.26,0000.23,-000.06,0000.30,0000.39,0000.59,18.8,25.0,,00.0,0637.9,30.8
2021-11-20T17:43:00Z,00000200,01000000,0001.04,0000.31,0000.07,0000.18,-000.19,0000.07,0000.25,0000.12,-000.02,18.9,25.0,,00.0,0637.9,30.8
2021-11-20T17:44:00Z,00000200,01000000,0000.53,0000.30,0000.27,-000.08,0000.20,-000.01,0000.27,0000.20,0000.16,18.9,25.0,,00.0,0637.9,30.9
2021-11-20T17:45:00Z,00000200,01000000,0001.08,0000.18,0000.26,0000.23,0000.40,0000.06,0000.43,0000.09,0000.06,18.9,25.0,,00.0,0637.8,30.9
2021-11-20T17:46:00Z,00000200,01000000,0000.39,0000.12,0000.33,0000.47,-000.01,-000.02,-000.07,0000.15,-000.09,18.9,25.0,,00.0,0637.8,30.8
2021-11-20T17:47:00Z,00000200,01000000,0000.33,0000.05,0000.07,0000.38,-000.08,0000.43,0000.14,0000.27,0000.45,18.8,25.0,,00.0,0637.7,30.8
2021-11-20T17:48:00Z,00000200,01000000,0000.86,0000.10,0000.23,0000.53,0000.08,-000.06,0000.30,0000.03,0000.08,18.7,25.0,,00.0,0637.7,30.8
2021-11-20T17:49:00Z,00000200,01000000,0000.46,0000.25,0000.23,-000.03,0000.02,0000.20,0000.35,0000.35,-000.08,18.7,24.9,,00.0,0637.7,30.8
2021-11-20T17:50:00Z,00000200,01000000,0000.52,0000.04,0000.17,0000.16,-000.06,0000.27,0000.19,0000.30,0000.37,18.7,24.9,,00.0,0637.6,30.8
2021-11-20T17:51:00Z,00000200,01000000,-000.01,0000.30,0000.22,0000.44,0000.03,-000.17,0000.51,0000.43,-000.02,18.7,24.9,,00.0,0637.6,30.8
2021-11-20T17:52:00Z,00000200,01000000,0000.09,0000.09,-000.14,0000.46,-000.13,-000.01,-000.14,0000.48,0000.30,18.8,24.9,,00.0,0637.6,30.8
2021-11-20T17:53:00Z,00000200,01000000,0000.70,-000.12,0000.25,0000.43,-000.57,-000.03,0000.52,0000.05,0000.20,18.8,25.0,,00.0,0637.6,30.8
2021-11-20T17:54:00Z,00000200,01000000,-000.09,0000.53,0000.19,-000.33,-000.02,-000.06,-000.07,0000.16,0000.05,18.8,25.0,,00.0,0637.6,30.8
2021-11-20T17:55:00Z,00000200,01000000,0000.05,-000.16,0000.40,0000.33,-000.10,0000.11,0000.51,0000.10,0000.56,18.9,25.0,,00.0,0637.6,30.8
2021-11-20T17:56:00Z,00000200,01000000,0000.99,0000.09,0000.29,-000.03,0000.06,0000.11,0000.18,0000.28,-000.02,18.9,25.0,,00.0,0637.6,30.8
2021-11-20T17:57:00Z,00000200,41000000,,,,,,,-000.13,-000.59,-000.19,19.0,25.1,,00.0,0637.7,30.9
2021-11-20T17:58:00Z,00000200,61000000,,,,,,,0000.12,0000.19,-000.01,18.7,25.1,,00.0,0636.7,30.9
2021-11-20T17:59:00Z,00000200,21000000,,,,,,,-000.17,-000.01,-000.02,18.7,25.3,,00.0,0636.6,30.9
